Location: Edemissen
(51.7689°N, 9.8634°E)
Time: 09:56:09
(UTC+00:00)

Cosmos 1025 Rocket - Pass Details

Date: 15 June 2024
Orbit: 589 x 614 km, 82.5° (Epoch: 22 July)

Event Time Altitude Azimuth Distance (km) Brightness Sun altitude
Exits shadow 00:50:13 17° 222° (SW) 1,557 4.5 -12.4°
Maximum altitude 00:53:15 42° 287° (WNW) 877 3.8 -12.2°
Drops below altitude 10° 00:57:22 10° 359° (N) 1,960 6.8 -12.0°
Sets 00:59:41 0° 6° (N) 2,864 8.1 -11.9°
